TimeEDT,TemperatureF,Dew PointF,Humidity,Sea Level PressureIn,VisibilityMPH,Wind Direction,Wind SpeedMPH,Gust SpeedMPH,PrecipitationIn,Events,Conditions,WindDirDegrees,DateUTC
12:15 AM,73.4,71.6,94,30.04,9.0,Calm,Calm,-,N/A,,Clear,0,2013-07-14 04:15:00
12:35 AM,73.4,71.6,94,30.03,9.0,Calm,Calm,-,N/A,,Clear,0,2013-07-14 04:35:00
12:55 AM,73.4,71.6,94,30.03,10.0,Calm,Calm,-,N/A,,Clear,0,2013-07-14 04:55:00
1:15 AM,73.4,71.6,94,30.03,9.0,Calm,Calm,-,N/A,,Clear,0,2013-07-14 05:15:00
1:35 AM,73.4,71.6,94,30.03,7.0,Calm,Calm,-,N/A,,Clear,0,2013-07-14 05:35:00
1:55 AM,73.4,71.6,94,30.03,9.0,Calm,Calm,-,N/A,,Clear,0,2013-07-14 05:55:00
2:15 AM,71.6,71.6,100,30.02,8.0,Calm,Calm,-,N/A,,Clear,0,2013-07-14 06:15:00
2:35 AM,71.6,71.6,100,30.02,9.0,Calm,Calm,-,N/A,,Clear,0,2013-07-14 06:35:00
2:55 AM,73.4,71.6,94,30.02,9.0,Calm,Calm,-,N/A,,Scattered Clouds,0,2013-07-14 06:55:00
3:15 AM,73.4,71.6,94,30.01,8.0,Calm,Calm,-,N/A,,Mostly Cloudy,0,2013-07-14 07:15:00
3:35 AM,73.4,71.6,94,30.01,8.0,Calm,Calm,-,N/A,,Overcast,0,2013-07-14 07:35:00
3:55 AM,73.4,71.6,94,30.01,9.0,Calm,Calm,-,N/A,,Overcast,0,2013-07-14 07:55:00
4:15 AM,73.4,71.6,94,30.01,9.0,Calm,Calm,-,N/A,,Overcast,0,2013-07-14 08:15:00
4:35 AM,73.4,71.6,94,30.01,9.0,Calm,Calm,-,N/A,,Mostly Cloudy,0,2013-07-14 08:35:00
4:55 AM,73.4,71.6,94,30.02,8.0,Calm,Calm,-,N/A,,Partly Cloudy,0,2013-07-14 08:55:00
5:15 AM,73.4,71.6,94,30.02,8.0,Calm,Calm,-,N/A,,Partly Cloudy,0,2013-07-14 09:15:00
5:35 AM,71.6,71.6,100,30.02,7.0,Calm,Calm,-,N/A,,Partly Cloudy,0,2013-07-14 09:35:00
5:55 AM,71.6,71.6,100,30.03,8.0,Calm,Calm,-,N/A,,Scattered Clouds,0,2013-07-14 09:55:00
6:15 AM,71.6,71.6,100,30.03,8.0,Calm,Calm,-,N/A,,Partly Cloudy,0,2013-07-14 10:15:00
6:35 AM,71.6,69.8,94,30.03,5.0,Calm,Calm,-,N/A,,Clear,0,2013-07-14 10:35:00
6:55 AM,71.6,71.6,100,30.04,6.0,Calm,Calm,-,N/A,,Mostly Cloudy,0,2013-07-14 10:55:00
7:15 AM,73.4,71.6,94,30.04,7.0,Calm,Calm,-,N/A,,Mostly Cloudy,0,2013-07-14 11:15:00
7:35 AM,75.2,73.4,94,30.05,8.0,Calm,Calm,-,N/A,,Partly Cloudy,0,2013-07-14 11:35:00
7:55 AM,75.2,73.4,94,30.05,9.0,Calm,Calm,-,N/A,,Clear,0,2013-07-14 11:55:00
8:15 AM,75.2,75.2,100,30.07,8.0,Calm,Calm,-,N/A,,Scattered Clouds,0,2013-07-14 12:15:00
8:35 AM,77.0,75.2,94,30.08,9.0,Calm,Calm,-,N/A,,Mostly Cloudy,0,2013-07-14 12:35:00
8:55 AM,78.8,75.2,89,30.09,9.0,Calm,Calm,-,N/A,,Mostly Cloudy,0,2013-07-14 12:55:00
9:15 AM,80.6,75.2,84,30.09,9.0,ESE,6.9,-,N/A,,Scattered Clouds,110,2013-07-14 13:15:00
9:35 AM,82.4,75.2,79,30.09,9.0,SE,6.9,-,N/A,,Clear,130,2013-07-14 13:35:00
9:55 AM,82.4,73.4,74,30.09,9.0,Calm,Calm,-,N/A,,Scattered Clouds,0,2013-07-14 13:55:00
10:15 AM,84.2,73.4,70,30.09,9.0,Calm,Calm,-,N/A,,Mostly Cloudy,0,2013-07-14 14:15:00
10:35 AM,87.8,73.4,62,30.09,9.0,Calm,Calm,-,N/A,,Mostly Cloudy,0,2013-07-14 14:35:00
10:55 AM,84.2,73.4,70,30.10,9.0,Calm,Calm,-,N/A,,Mostly Cloudy,0,2013-07-14 14:55:00
11:15 AM,86.0,73.4,66,30.09,9.0,Calm,Calm,-,N/A,,Scattered Clouds,0,2013-07-14 15:15:00
11:35 AM,87.8,73.4,62,30.10,10.0,Calm,Calm,-,N/A,,Partly Cloudy,0,2013-07-14 15:35:00
11:55 AM,87.8,73.4,62,30.10,10.0,ESE,4.6,-,N/A,,Mostly Cloudy,120,2013-07-14 15:55:00
12:15 PM,86.0,73.4,66,30.10,9.0,Calm,Calm,-,N/A,,Scattered Clouds,0,2013-07-14 16:15:00
12:35 PM,87.8,73.4,62,30.09,9.0,Calm,Calm,-,N/A,,Partly Cloudy,0,2013-07-14 16:35:00
12:55 PM,87.8,75.2,66,30.09,9.0,NE,3.5,-,N/A,,Scattered Clouds,50,2013-07-14 16:55:00
1:15 PM,87.8,75.2,66,30.09,9.0,ENE,10.4,-,N/A,,Mostly Cloudy,70,2013-07-14 17:15:00
1:35 PM,84.2,73.4,70,30.10,10.0,East,11.5,-,N/A,,Mostly Cloudy,80,2013-07-14 17:35:00
1:55 PM,82.4,73.4,74,30.10,9.0,East,13.8,-,N/A,,Scattered Clouds,80,2013-07-14 17:55:00
2:15 PM,80.6,73.4,79,30.10,8.0,East,10.4,-,N/A,,Scattered Clouds,80,2013-07-14 18:15:00
2:35 PM,80.6,75.2,84,30.10,-9999.0,ENE,11.5,16.1,N/A,,Mostly Cloudy,70,2013-07-14 18:35:00
2:55 PM,80.6,75.2,84,30.10,-9999.0,East,11.5,17.3,N/A,,Mostly Cloudy,100,2013-07-14 18:55:00
3:15 PM,80.6,75.2,84,30.10,9.0,East,13.8,18.4,N/A,,Scattered Clouds,100,2013-07-14 19:15:00
3:35 PM,80.6,73.4,79,30.10,-9999.0,East,17.3,-,N/A,,Mostly Cloudy,90,2013-07-14 19:35:00
3:55 PM,80.6,73.4,79,30.10,8.0,ESE,12.7,16.1,N/A,,Scattered Clouds,110,2013-07-14 19:55:00
4:15 PM,80.6,73.4,79,30.10,10.0,ESE,8.1,-,N/A,,Scattered Clouds,110,2013-07-14 20:15:00
4:35 PM,82.4,73.4,74,30.09,9.0,East,9.2,17.3,N/A,,Mostly Cloudy,90,2013-07-14 20:35:00
4:55 PM,82.4,73.4,74,30.09,9.0,East,9.2,-,N/A,,Mostly Cloudy,100,2013-07-14 20:55:00
5:15 PM,82.4,73.4,74,30.09,8.0,East,11.5,-,N/A,,Scattered Clouds,90,2013-07-14 21:15:00
5:35 PM,82.4,73.4,74,30.09,9.0,ESE,12.7,-,N/A,,Partly Cloudy,110,2013-07-14 21:35:00
5:55 PM,80.6,71.6,74,30.08,8.0,East,11.5,-,N/A,,Clear,90,2013-07-14 21:55:00
6:15 PM,80.6,71.6,74,30.07,9.0,East,9.2,-,N/A,,Clear,100,2013-07-14 22:15:00
6:35 PM,80.6,71.6,74,30.07,9.0,Calm,Calm,-,N/A,,Clear,0,2013-07-14 22:35:00
6:55 PM,80.6,73.4,79,30.08,9.0,Calm,Calm,-,N/A,,Clear,0,2013-07-14 22:55:00
7:15 PM,80.6,71.6,74,30.08,8.0,Calm,Calm,-,N/A,,Clear,0,2013-07-14 23:15:00
7:35 PM,80.6,73.4,79,30.09,9.0,Calm,Calm,-,N/A,,Clear,0,2013-07-14 23:35:00
7:55 PM,78.8,73.4,83,30.09,8.0,East,4.6,-,N/A,,Clear,100,2013-07-14 23:55:00
8:15 PM,78.8,73.4,83,30.10,8.0,Calm,Calm,-,N/A,,Clear,0,2013-07-15 00:15:00
8:35 PM,77.0,73.4,89,30.10,8.0,Calm,Calm,-,N/A,,Scattered Clouds,0,2013-07-15 00:35:00
8:55 PM,77.0,71.6,83,30.11,8.0,Calm,Calm,-,N/A,,Mostly Cloudy,0,2013-07-15 00:55:00
9:15 PM,75.2,71.6,89,30.11,8.0,Calm,Calm,-,N/A,,Mostly Cloudy,0,2013-07-15 01:15:00
9:35 PM,77.0,73.4,89,30.12,8.0,Calm,Calm,-,N/A,,Mostly Cloudy,0,2013-07-15 01:35:00
9:55 PM,75.2,71.6,89,30.13,8.0,Calm,Calm,-,N/A,,Mostly Cloudy,0,2013-07-15 01:55:00
10:15 PM,75.2,71.6,89,30.14,8.0,Calm,Calm,-,N/A,,Scattered Clouds,0,2013-07-15 02:15:00
10:35 PM,75.2,71.6,89,30.14,7.0,Calm,Calm,-,N/A,,Partly Cloudy,0,2013-07-15 02:35:00
10:55 PM,75.2,71.6,89,30.13,7.0,Calm,Calm,-,N/A,,Scattered Clouds,0,2013-07-15 02:55:00
11:15 PM,75.2,71.6,89,30.13,7.0,Calm,Calm,-,N/A,,Mostly Cloudy,0,2013-07-15 03:15:00
11:35 PM,75.2,73.4,94,30.13,7.0,Calm,Calm,-,N/A,,Mostly Cloudy,0,2013-07-15 03:35:00
11:55 PM,73.4,71.6,94,30.13,7.0,Calm,Calm,-,N/A,,Partly Cloudy,0,2013-07-15 03:55:00